Time,TemperatureF,DewpointF,PressureIn,WindDirection,WindDirectionDegrees,WindSpeedMPH,WindSpeedGustMPH,Humidity,HourlyPrecipIn,Conditions,Clouds,dailyrainin,SoftwareType,DateUTC
2013-01-23 00:02:00,15.0,8.0,-100.00,SSW,200,12.0,17.0,75,0.00,,,-99.99,,2013-01-23 06:02:00,
2013-01-23 00:12:00,15.0,8.0,-100.00,South,190,14.0,17.0,74,0.00,,,-99.99,,2013-01-23 06:12:00,
2013-01-23 00:22:00,15.0,8.0,-100.00,SSW,195,12.0,16.0,74,0.00,,,-99.99,,2013-01-23 06:22:00,
2013-01-23 00:32:00,15.0,8.0,-100.00,SSW,195,12.0,16.0,74,0.00,,,-99.99,,2013-01-23 06:32:00,
2013-01-23 00:42:00,14.0,8.0,-100.00,South,190,10.0,15.0,74,0.00,,,-99.99,,2013-01-23 06:42:00,
2013-01-23 00:52:00,15.0,8.0,-100.00,SSW,195,9.0,14.0,74,0.00,,,-99.99,,2013-01-23 06:52:00,
2013-01-23 01:02:00,15.0,8.0,-100.00,SSW,205,14.0,16.0,74,0.00,,,-99.99,,2013-01-23 07:02:00,
2013-01-23 01:12:00,15.0,8.0,-100.00,South,190,12.0,14.0,74,0.00,,,-99.99,,2013-01-23 07:12:00,
2013-01-23 01:22:00,14.0,8.0,-100.00,South,185,10.0,14.0,74,0.00,,,-99.99,,2013-01-23 07:22:00,
2013-01-23 01:33:00,14.0,8.0,-100.00,SSW,195,9.0,12.0,74,0.00,,,-99.99,,2013-01-23 07:33:00,
2013-01-23 01:42:00,15.0,8.0,-100.00,SSW,195,9.0,12.0,74,0.00,,,-99.99,,2013-01-23 07:42:00,
2013-01-23 01:52:00,15.0,9.0,-100.00,SSW,205,14.0,17.0,75,0.00,,,-99.99,,2013-01-23 07:52:00,
2013-01-23 02:02:00,15.0,9.0,-100.00,SSW,200,14.0,19.0,75,0.00,,,-99.99,,2013-01-23 08:02:00,
2013-01-23 02:13:00,15.0,9.0,-100.00,SSW,200,12.0,17.0,75,0.00,,,-99.99,,2013-01-23 08:13:00,
2013-01-23 02:22:00,15.0,9.0,-100.00,SSW,210,12.0,17.0,75,0.00,,,-99.99,,2013-01-23 08:22:00,
2013-01-23 02:33:00,15.0,9.0,-100.00,SSW,210,11.0,16.0,75,0.00,,,-99.99,,2013-01-23 08:33:00,
2013-01-23 02:42:00,15.0,8.0,-100.00,SSW,210,12.0,16.0,75,0.00,,,-99.99,,2013-01-23 08:42:00,
2013-01-23 02:52:00,15.0,8.0,-100.00,SSW,195,11.0,17.0,75,0.00,,,-99.99,,2013-01-23 08:52:00,
2013-01-23 03:03:00,14.0,8.0,-100.00,SSW,205,10.0,16.0,75,0.00,,,-99.99,,2013-01-23 09:03:00,
2013-01-23 03:12:00,14.0,8.0,-100.00,SSW,195,11.0,15.0,75,0.00,,,-99.99,,2013-01-23 09:12:00,
2013-01-23 03:22:00,13.0,7.0,-100.00,SSW,200,9.0,15.0,75,0.00,,,-99.99,,2013-01-23 09:22:00,
2013-01-23 03:32:00,12.0,6.0,-100.00,SSW,205,9.0,14.0,76,0.00,,,-99.99,,2013-01-23 09:32:00,
2013-01-23 03:43:00,12.0,6.0,-100.00,SSW,210,7.0,12.0,76,0.00,,,-99.99,,2013-01-23 09:43:00,
2013-01-23 03:52:00,11.0,5.0,-100.00,SW,215,7.0,9.0,77,0.00,,,-99.99,,2013-01-23 09:52:00,
2013-01-23 04:03:00,11.0,5.0,-100.00,SW,215,7.0,9.0,77,0.00,,,-99.99,,2013-01-23 10:03:00,
2013-01-23 04:12:00,11.0,6.0,-100.00,SW,215,11.0,12.0,77,0.00,,,-99.99,,2013-01-23 10:12:00,
2013-01-23 04:22:00,11.0,6.0,-100.00,SW,215,11.0,12.0,77,0.00,,,-99.99,,2013-01-23 10:22:00,
2013-01-23 04:33:00,10.0,5.0,-100.00,SSW,205,6.0,8.0,78,0.00,,,-99.99,,2013-01-23 10:33:00,
2013-01-23 04:42:00,10.0,5.0,-100.00,SW,215,5.0,7.0,78,0.00,,,-99.99,,2013-01-23 10:42:00,
2013-01-23 04:52:00,10.0,5.0,-100.00,SW,215,5.0,7.0,78,0.00,,,-99.99,,2013-01-23 10:52:00,
2013-01-23 05:02:00,11.0,5.0,-100.00,SW,235,7.0,9.0,78,0.00,,,-99.99,,2013-01-23 11:02:00,
2013-01-23 05:12:00,11.0,6.0,-100.00,WSW,245,6.0,9.0,78,0.00,,,-99.99,,2013-01-23 11:12:00,
2013-01-23 05:22:00,11.0,6.0,-100.00,West,265,7.0,9.0,78,0.00,,,-99.99,,2013-01-23 11:22:00,
2013-01-23 05:33:00,11.0,6.0,-100.00,WNW,285,4.0,9.0,78,0.00,,,-99.99,,2013-01-23 11:33:00,
2013-01-23 05:43:00,11.0,5.0,-100.00,West,275,4.0,9.0,78,0.00,,,-99.99,,2013-01-23 11:43:00,
2013-01-23 05:52:00,10.0,5.0,-100.00,West,270,4.0,6.0,79,0.00,,,-99.99,,2013-01-23 11:52:00,
2013-01-23 06:03:00,10.0,5.0,-100.00,West,270,4.0,6.0,79,0.00,,,-99.99,,2013-01-23 12:03:00,
2013-01-23 06:12:00,10.0,5.0,-100.00,West,275,6.0,8.0,79,0.00,,,-99.99,,2013-01-23 12:12:00,
2013-01-23 06:22:00,10.0,5.0,-100.00,WNW,295,4.0,10.0,79,0.00,,,-99.99,,2013-01-23 12:22:00,
2013-01-23 06:33:00,9.0,4.0,-100.00,WNW,290,5.0,7.0,80,0.00,,,-99.99,,2013-01-23 12:33:00,
2013-01-23 06:43:00,9.0,4.0,-100.00,WNW,285,6.0,7.0,80,0.00,,,-99.99,,2013-01-23 12:43:00,
2013-01-23 06:52:00,9.0,5.0,-100.00,WNW,285,4.0,7.0,81,0.00,,,-99.99,,2013-01-23 12:52:00,
2013-01-23 07:03:00,9.0,5.0,-100.00,WNW,285,4.0,7.0,81,0.00,,,-99.99,,2013-01-23 13:03:00,
2013-01-23 07:13:00,10.0,6.0,-100.00,WNW,290,9.0,10.0,81,0.00,,,-99.99,,2013-01-23 13:13:00,
2013-01-23 07:23:00,11.0,7.0,-100.00,West,280,10.0,12.0,81,0.00,,,-99.99,,2013-01-23 13:23:00,
2013-01-23 07:33:00,12.0,7.0,-100.00,West,280,12.0,14.0,81,0.00,,,-99.99,,2013-01-23 13:33:00,
2013-01-23 07:42:00,12.0,7.0,-100.00,WNW,290,9.0,12.0,81,0.00,,,-99.99,,2013-01-23 13:42:00,
2013-01-23 07:52:00,12.0,7.0,-100.00,WNW,300,11.0,12.0,82,0.00,,,-99.99,,2013-01-23 13:52:00,
2013-01-23 08:02:00,12.0,7.0,-100.00,WNW,300,11.0,12.0,82,0.00,,,-99.99,,2013-01-23 14:02:00,
2013-01-23 08:12:00,11.0,7.0,-100.00,NW,310,11.0,14.0,82,0.00,,,-99.99,,2013-01-23 14:12:00,
2013-01-23 08:23:00,12.0,8.0,-100.00,NW,315,11.0,13.0,83,0.00,,,-99.99,,2013-01-23 14:23:00,
2013-01-23 08:33:00,12.0,8.0,-100.00,NW,320,10.0,13.0,83,0.00,,,-99.99,,2013-01-23 14:33:00,
2013-01-23 08:42:00,12.0,8.0,-100.00,NW,325,12.0,16.0,83,0.00,,,-99.99,,2013-01-23 14:42:00,
2013-01-23 08:53:00,13.0,9.0,-100.00,NW,325,12.0,18.0,83,0.00,,,-99.99,,2013-01-23 14:53:00,
2013-01-23 09:03:00,13.0,9.0,-100.00,NW,325,12.0,18.0,83,0.00,,,-99.99,,2013-01-23 15:03:00,
2013-01-23 09:12:00,13.0,9.0,-100.00,NW,325,13.0,16.0,83,0.00,,,-99.99,,2013-01-23 15:12:00,
2013-01-23 09:22:00,13.0,9.0,-100.00,NW,325,12.0,15.0,83,0.00,,,-99.99,,2013-01-23 15:22:00,
2013-01-23 09:33:00,14.0,10.0,-100.00,NNW,330,14.0,17.0,83,0.00,,,-99.99,,2013-01-23 15:33:00,
2013-01-23 09:43:00,13.0,9.0,-100.00,NNW,335,12.0,15.0,83,0.00,,,-99.99,,2013-01-23 15:43:00,
2013-01-23 09:53:00,16.0,12.0,-100.00,NNW,335,13.0,17.0,83,0.00,,,-99.99,,2013-01-23 15:53:00,
2013-01-23 10:03:00,16.0,12.0,-100.00,NNW,335,13.0,17.0,83,0.00,,,-99.99,,2013-01-23 16:03:00,
2013-01-23 10:12:00,17.0,13.0,-100.00,NNW,340,12.0,16.0,83,0.00,,,-99.99,,2013-01-23 16:12:00,
2013-01-23 10:23:00,18.0,13.0,-100.00,NNW,330,16.0,18.0,82,0.00,,,-99.99,,2013-01-23 16:23:00,
2013-01-23 10:33:00,17.0,13.0,-100.00,NNW,345,13.0,18.0,81,0.00,,,-99.99,,2013-01-23 16:33:00,
2013-01-23 10:42:00,18.0,13.0,-100.00,NNW,345,16.0,17.0,81,0.00,,,-99.99,,2013-01-23 16:42:00,
2013-01-23 10:52:00,19.0,14.0,-100.00,North,350,15.0,21.0,80,0.00,,,-99.99,,2013-01-23 16:52:00,
2013-01-23 11:03:00,19.0,14.0,-100.00,North,350,15.0,21.0,80,0.00,,,-99.99,,2013-01-23 17:03:00,
2013-01-23 11:12:00,19.0,14.0,-100.00,NNW,335,15.0,21.0,80,0.00,,,-99.99,,2013-01-23 17:12:00,
2013-01-23 11:22:00,20.0,15.0,-100.00,North,350,16.0,19.0,80,0.00,,,-99.99,,2013-01-23 17:22:00,
2013-01-23 11:33:00,20.0,15.0,-100.00,NNW,345,17.0,21.0,80,0.00,,,-99.99,,2013-01-23 17:33:00,
2013-01-23 11:42:00,20.0,15.0,-100.00,NNW,345,17.0,21.0,79,0.00,,,-99.99,,2013-01-23 17:42:00,
2013-01-23 11:52:00,20.0,15.0,-100.00,NNW,335,14.0,21.0,78,0.00,,,-99.99,,2013-01-23 17:52:00,
2013-01-23 12:03:00,20.0,15.0,-100.00,NNW,335,14.0,21.0,78,0.00,,,-99.99,,2013-01-23 18:03:00,
2013-01-23 12:12:00,21.0,15.0,-100.00,North,350,17.0,20.0,77,0.00,,,-99.99,,2013-01-23 18:12:00,
2013-01-23 12:23:00,22.0,16.0,-100.00,NNW,340,15.0,21.0,77,0.00,,,-99.99,,2013-01-23 18:23:00,
2013-01-23 12:33:00,22.0,16.0,-100.00,NW,325,16.0,21.0,76,0.00,,,-99.99,,2013-01-23 18:33:00,
2013-01-23 12:43:00,22.0,16.0,-100.00,NW,325,18.0,22.0,76,0.00,,,-99.99,,2013-01-23 18:43:00,
2013-01-23 12:52:00,22.0,15.0,-100.00,NNW,330,16.0,21.0,75,0.00,,,-99.99,,2013-01-23 18:52:00,
2013-01-23 13:03:00,22.0,15.0,-100.00,NNW,330,16.0,21.0,75,0.00,,,-99.99,,2013-01-23 19:03:00,
2013-01-23 13:13:00,21.0,14.0,-100.00,NNW,345,19.0,22.0,74,0.00,,,-99.99,,2013-01-23 19:13:00,
2013-01-23 13:22:00,22.0,15.0,-100.00,NNW,330,19.0,24.0,74,0.00,,,-99.99,,2013-01-23 19:22:00,
2013-01-23 13:33:00,22.0,15.0,-100.00,NNW,330,20.0,24.0,73,0.00,,,-99.99,,2013-01-23 19:33:00,
2013-01-23 13:43:00,22.0,15.0,-100.00,NNW,335,21.0,24.0,73,0.00,,,-99.99,,2013-01-23 19:43:00,
2013-01-23 13:52:00,22.0,14.0,-100.00,NNW,330,20.0,24.0,73,0.00,,,-99.99,,2013-01-23 19:52:00,
2013-01-23 14:03:00,21.0,14.0,-100.00,NW,325,20.0,24.0,73,0.00,,,-99.99,,2013-01-23 20:03:00,
2013-01-23 14:12:00,22.0,14.0,-100.00,NNW,335,21.0,26.0,72,0.00,,,-99.99,,2013-01-23 20:12:00,
2013-01-23 14:23:00,21.0,13.0,-100.00,NNW,345,20.0,26.0,72,0.00,,,-99.99,,2013-01-23 20:23:00,
2013-01-23 14:33:00,20.0,13.0,-100.00,NNW,335,21.0,26.0,72,0.00,,,-99.99,,2013-01-23 20:33:00,
2013-01-23 14:43:00,21.0,13.0,-100.00,NNW,330,19.0,24.0,72,0.00,,,-99.99,,2013-01-23 20:43:00,
2013-01-23 14:53:00,19.0,11.0,-100.00,NNW,340,18.0,23.0,70,0.00,,,-99.99,,2013-01-23 20:53:00,
2013-01-23 15:03:00,19.0,11.0,-100.00,NNW,340,18.0,23.0,70,0.00,,,-99.99,,2013-01-23 21:03:00,
2013-01-23 15:12:00,19.0,11.0,-100.00,NNW,340,18.0,23.0,70,0.00,,,-99.99,,2013-01-23 21:12:00,
2013-01-23 15:22:00,19.0,11.0,-100.00,NW,325,20.0,25.0,71,0.00,,,-99.99,,2013-01-23 21:22:00,
2013-01-23 15:33:00,18.0,11.0,-100.00,NNW,330,21.0,26.0,71,0.00,,,-99.99,,2013-01-23 21:33:00,
2013-01-23 15:42:00,18.0,10.0,-100.00,NNW,330,22.0,27.0,70,0.00,,,-99.99,,2013-01-23 21:42:00,
2013-01-23 15:53:00,18.0,10.0,-100.00,NNW,345,19.0,27.0,69,0.00,,,-99.99,,2013-01-23 21:53:00,
2013-01-23 16:02:00,18.0,10.0,-100.00,NNW,345,19.0,27.0,69,0.00,,,-99.99,,2013-01-23 22:02:00,
2013-01-23 16:12:00,18.0,9.0,-100.00,NNW,340,21.0,29.0,68,0.00,,,-99.99,,2013-01-23 22:12:00,
2013-01-23 16:23:00,17.0,9.0,-100.00,North,350,24.0,29.0,68,0.00,,,-99.99,,2013-01-23 22:23:00,
2013-01-23 16:33:00,17.0,8.0,-100.00,North,350,21.0,26.0,68,0.00,,,-99.99,,2013-01-23 22:33:00,
2013-01-23 16:42:00,16.0,7.0,-100.00,North,350,19.0,26.0,67,0.00,,,-99.99,,2013-01-23 22:42:00,
2013-01-23 16:52:00,15.0,6.0,-100.00,North,350,21.0,26.0,67,0.00,,,-99.99,,2013-01-23 22:52:00,
2013-01-23 17:03:00,15.0,6.0,-100.00,North,350,21.0,26.0,67,0.00,,,-99.99,,2013-01-23 23:03:00,
2013-01-23 17:12:00,13.0,4.0,-100.00,North,0,20.0,25.0,68,0.00,,,-99.99,,2013-01-23 23:12:00,
2013-01-23 17:22:00,12.0,4.0,-100.00,North,350,21.0,27.0,68,0.00,,,-99.99,,2013-01-23 23:22:00,
2013-01-23 17:33:00,11.0,3.0,-100.00,North,355,19.0,26.0,68,0.00,,,-99.99,,2013-01-23 23:33:00,
2013-01-23 17:43:00,10.0,2.0,-100.00,North,350,21.0,26.0,69,0.00,,,-99.99,,2013-01-23 23:43:00,
2013-01-23 17:52:00,9.0,1.0,-100.00,North,0,19.0,24.0,69,0.00,,,-99.99,,2013-01-23 23:52:00,
2013-01-23 18:03:00,9.0,1.0,-100.00,North,0,19.0,24.0,69,0.00,,,-99.99,,2013-01-24 00:03:00,
2013-01-23 18:12:00,8.0,1.0,-100.00,North,350,24.0,27.0,70,0.00,,,-99.99,,2013-01-24 00:12:00,
2013-01-23 18:22:00,8.0,0.0,-100.00,North,355,23.0,27.0,70,0.00,,,-99.99,,2013-01-24 00:22:00,
2013-01-23 18:32:00,7.0,0.0,-100.00,North,0,19.0,29.0,70,0.00,,,-99.99,,2013-01-24 00:32:00,
2013-01-23 18:42:00,6.0,-1.0,-100.00,North,355,21.0,24.0,71,0.00,,,-99.99,,2013-01-24 00:42:00,
2013-01-23 18:53:00,5.0,-2.0,-100.00,North,0,19.0,23.0,71,0.00,,,-99.99,,2013-01-24 00:53:00,
2013-01-23 19:03:00,5.0,-2.0,-100.00,North,0,19.0,23.0,71,0.00,,,-99.99,,2013-01-24 01:03:00,
2013-01-23 19:12:00,5.0,-2.0,-100.00,North,350,20.0,26.0,71,0.00,,,-99.99,,2013-01-24 01:12:00,
2013-01-23 19:23:00,4.0,-3.0,-100.00,North,355,20.0,26.0,71,0.00,,,-99.99,,2013-01-24 01:23:00,
2013-01-23 19:33:00,4.0,-3.0,-100.00,North,350,21.0,26.0,71,0.00,,,-99.99,,2013-01-24 01:33:00,
2013-01-23 19:42:00,4.0,-3.0,-100.00,North,0,17.0,29.0,71,0.00,,,-99.99,,2013-01-24 01:42:00,
2013-01-23 19:52:00,2.0,-5.0,-100.00,North,350,25.0,30.0,71,0.00,,,-99.99,,2013-01-24 01:52:00,
2013-01-23 20:02:00,2.0,-5.0,-100.00,North,350,25.0,30.0,71,0.00,,,-99.99,,2013-01-24 02:02:00,
2013-01-23 20:12:00,2.0,-5.0,-100.00,North,0,23.0,29.0,70,0.00,,,-99.99,,2013-01-24 02:12:00,
2013-01-23 20:22:00,2.0,-5.0,-100.00,North,350,18.0,24.0,70,0.00,,,-99.99,,2013-01-24 02:22:00,
2013-01-23 20:33:00,2.0,-6.0,-100.00,North,350,21.0,27.0,70,0.00,,,-99.99,,2013-01-24 02:33:00,
2013-01-23 20:42:00,2.0,-6.0,-100.00,North,350,21.0,27.0,70,0.00,,,-99.99,,2013-01-24 02:42:00,
2013-01-23 20:52:00,2.0,-6.0,-100.00,North,350,21.0,27.0,70,0.00,,,-99.99,,2013-01-24 02:52:00,
2013-01-23 21:02:00,1.0,-7.0,-100.00,North,0,19.0,24.0,68,0.00,,,-99.99,,2013-01-24 03:02:00,
2013-01-23 21:12:00,1.0,-7.0,-100.00,North,355,18.0,25.0,68,0.00,,,-99.99,,2013-01-24 03:12:00,
2013-01-23 21:22:00,0.0,-7.0,-100.00,North,0,14.0,22.0,68,0.00,,,-99.99,,2013-01-24 03:22:00,
2013-01-23 21:33:00,0.0,-8.0,-100.00,North,5,14.0,18.0,68,0.00,,,-99.99,,2013-01-24 03:33:00,
2013-01-23 21:43:00,0.0,-8.0,-100.00,North,0,17.0,21.0,67,0.00,,,-99.99,,2013-01-24 03:43:00,
2013-01-23 21:52:00,0.0,-8.0,-100.00,North,5,15.0,20.0,67,0.00,,,-99.99,,2013-01-24 03:52:00,
2013-01-23 22:02:00,0.0,-8.0,-100.00,North,5,15.0,20.0,67,0.00,,,-99.99,,2013-01-24 04:02:00,
2013-01-23 22:12:00,0.0,-9.0,-100.00,North,5,16.0,21.0,67,0.00,,,-99.99,,2013-01-24 04:12:00,
2013-01-23 22:22:00,-1.0,-9.0,-100.00,North,5,14.0,19.0,67,0.00,,,-99.99,,2013-01-24 04:22:00,
2013-01-23 22:32:00,-1.0,-9.0,-100.00,North,5,12.0,16.0,67,0.00,,,-99.99,,2013-01-24 04:32:00,
2013-01-23 22:42:00,-1.0,-9.0,-100.00,North,5,9.0,16.0,67,0.00,,,-99.99,,2013-01-24 04:42:00,
2013-01-23 22:52:00,-1.0,-9.0,-100.00,North,0,14.0,17.0,67,0.00,,,-99.99,,2013-01-24 04:52:00,
2013-01-23 23:03:00,-1.0,-9.0,-100.00,North,5,12.0,19.0,67,0.00,,,-99.99,,2013-01-24 05:03:00,
2013-01-23 23:12:00,-1.0,-10.0,-100.00,NNE,15,11.0,17.0,67,0.00,,,-99.99,,2013-01-24 05:12:00,
2013-01-23 23:22:00,-1.0,-9.0,-100.00,NNE,15,12.0,16.0,67,0.00,,,-99.99,,2013-01-24 05:22:00,
2013-01-23 23:33:00,-2.0,-10.0,-100.00,North,10,14.0,19.0,67,0.00,,,-99.99,,2013-01-24 05:33:00,
2013-01-23 23:42:00,-2.0,-10.0,-100.00,NNE,20,12.0,17.0,67,0.00,,,-99.99,,2013-01-24 05:42:00,
2013-01-23 23:52:00,-2.0,-10.0,-100.00,NNE,15,11.0,17.0,67,0.00,,,-99.99,,2013-01-24 05:52:00,